When you browse on this site, cookies collect data to enhance your experience and personalize the content and advertising you see.
Visit our Privacy Policy to learn more. By continuing to use the site, you agree to this use of cookies and data.
  • In Switzerland
  • List of Countries
  • For 7 days
  • Water Temperature
  • Satellite Maps
  • Weather Map
  • Weather Widgets
  • user-avatar
    Login

    Hourly Weather Eldoret

    Today, 23 March, Saturday

    Time Temperature Precipitation Wind Pressure Humidity
    00:00 +17°C° 0 mm 3 mps 597 mmHg 51%
    01:00 +17°C° 0 mm 3 mps 597 mmHg 56%
    02:00 +17°C° 0 mm 4 mps 596 mmHg 62%
    03:00 +17°C° 0 mm 4 mps 596 mmHg 62%
    04:00 +17°C° 0 mm 4 mps 596 mmHg 63%
    05:00 +17°C° 0 mm 4 mps 596 mmHg 63%
    06:00 +19°C° 0 mm 4 mps 597 mmHg 52%
    07:00 +21°C° 0 mm 5 mps 598 mmHg 41%
    08:00 +23°C° 0 mm 5 mps 599 mmHg 30%
    09:00 +26°C° 0 mm 4 mps 600 mmHg 24%
    10:00 +29°C° 0 mm 4 mps 600 mmHg 18%
    11:00 +32°C° 0 mm 4 mps 601 mmHg 12%
    12:00 +33°C° 0 mm 4 mps 600 mmHg 12%
    13:00 +33°C° 0 mm 4 mps 600 mmHg 11%
    14:00 +34°C° 0 mm 4 mps 599 mmHg 11%
    15:00 +32°C° 0 mm 4 mps 599 mmHg 14%
    16:00 +30°C° 0 mm 4 mps 598 mmHg 17%
    17:00 +28°C° 0 mm 3 mps 597 mmHg 20%
    18:00 +25°C° 0 mm 3 mps 597 mmHg 29%
    19:00 +21°C° 0 mm 2 mps 596 mmHg 39%
    20:00 +18°C° 0 mm 2 mps 596 mmHg 48%
    21:00 +18°C° 0 mm 2 mps 596 mmHg 50%
    22:00 +17°C° 0 mm 2 mps 596 mmHg 51%
    23:00 +17°C° 0 mm 3 mps 597 mmHg 53%

    Tomorrow, 24 March, Sunday

    Time Temperature Precipitation Wind Pressure Humidity
    00:00 +17°C° 0 mm 3 mps 596 mmHg 60%
    01:00 +17°C° 0 mm 3 mps 596 mmHg 67%
    02:00 +15°C° 0 mm 4 mps 595 mmHg 75%
    03:00 +15°C° 0 mm 4 mps 595 mmHg 73%
    04:00 +15°C° 0 mm 4 mps 595 mmHg 71%
    05:00 +15°C° 0 mm 4 mps 595 mmHg 69%
    06:00 +18°C° 0 mm 4 mps 597 mmHg 54%
    07:00 +21°C° 0 mm 4 mps 598 mmHg 40%
    08:00 +23°C° 0 mm 4 mps 599 mmHg 26%
    09:00 +27°C° 0 mm 4 mps 600 mmHg 21%
    10:00 +29°C° 0 mm 4 mps 600 mmHg 17%
    11:00 +31°C° 0 mm 3 mps 600 mmHg 12%
    12:00 +33°C° 0 mm 4 mps 600 mmHg 12%
    13:00 +33°C° 0 mm 4 mps 599 mmHg 11%
    14:00 +34°C° 0 mm 4 mps 599 mmHg 11%
    15:00 +32°C° 0 mm 4 mps 598 mmHg 13%
    16:00 +30°C° 0 mm 4 mps 597 mmHg 16%
    17:00 +29°C° 0 mm 3 mps 597 mmHg 19%
    18:00 +25°C° 0 mm 3 mps 596 mmHg 30%
    19:00 +21°C° 0 mm 2 mps 596 mmHg 42%
    20:00 +18°C° 0 mm 2 mps 595 mmHg 54%
    21:00 +18°C° 0 mm 2 mps 596 mmHg 53%
    22:00 +18°C° 0 mm 2 mps 596 mmHg 52%
    23:00 +17°C° 0 mm 3 mps 596 mmHg 51%

    Day after tomorrow, 25 March, Monday

    Time Temperature Precipitation Wind Pressure Humidity
    00:00 +17°C° 0 mm 3 mps 596 mmHg 58%
    01:00 +17°C° 0 mm 3 mps 595 mmHg 65%
    02:00 +16°C° 0 mm 3 mps 594 mmHg 72%
    03:00 +16°C° 0 mm 3 mps 595 mmHg 73%
    04:00 +16°C° 0 mm 3 mps 595 mmHg 74%
    05:00 +16°C° 0 mm 3 mps 595 mmHg 76%
    06:00 +18°C° 0 mm 3 mps 596 mmHg 64%
    07:00 +21°C° 0 mm 3 mps 598 mmHg 52%
    08:00 +24°C° 0 mm 3 mps 599 mmHg 40%
    09:00 +27°C° 0 mm 3 mps 600 mmHg 33%
    10:00 +29°C° 0 mm 2 mps 600 mmHg 25%
    11:00 +32°C° 0 mm 2 mps 601 mmHg 17%
    12:00 +32°C° 0 mm 2 mps 600 mmHg 16%
    13:00 +32°C° 0 mm 2 mps 600 mmHg 16%
    14:00 +34°C° 0 mm 3 mps 599 mmHg 15%
    15:00 +31°C° 0 mm 3 mps 598 mmHg 22%
    16:00 +28°C° 0 mm 2 mps 597 mmHg 29%
    17:00 +26°C° 0 mm 2 mps 596 mmHg 35%
    18:00 +24°C° 0.7 mm 2 mps 596 mmHg 49%
    19:00 +21°C° 0.7 mm 1 mps 596 mmHg 62%
    20:00 +18°C° 0.7 mm 1 mps 596 mmHg 75%
    21:00 +18°C° 0.1 mm 1 mps 596 mmHg 73%
    22:00 +18°C° 0.1 mm 1 mps 596 mmHg 70%
    23:00 +17°C° 0.1 mm 2 mps 596 mmHg 68%

    26 March, Tuesday

    Time Temperature Precipitation Wind Pressure Humidity
    00:00 +16°C° 0 mm 2 mps 596 mmHg 70%
    01:00 +16°C° 0 mm 2 mps 595 mmHg 73%
    02:00 +16°C° 0 mm 2 mps 595 mmHg 76%
    03:00 +16°C° 0 mm 2 mps 595 mmHg 77%
    04:00 +16°C° 0 mm 2 mps 595 mmHg 78%
    05:00 +16°C° 0 mm 3 mps 595 mmHg 79%
    06:00 +18°C° 0 mm 2 mps 597 mmHg 67%
    07:00 +21°C° 0 mm 2 mps 599 mmHg 55%
    08:00 +25°C° 0 mm 2 mps 600 mmHg 43%
    09:00 +27°C° 0 mm 2 mps 601 mmHg 36%
    10:00 +29°C° 0 mm 2 mps 601 mmHg 29%
    11:00 +31°C° 0 mm 2 mps 602 mmHg 22%
    12:00 +29°C° 0 mm 2 mps 600 mmHg 27%
    13:00 +27°C° 0 mm 2 mps 599 mmHg 32%
    14:00 +26°C° 0 mm 2 mps 597 mmHg 36%
    15:00 +25°C° 0.1 mm 1 mps 597 mmHg 40%
    16:00 +24°C° 0.1 mm 1 mps 597 mmHg 44%
    17:00 +23°C° 0.1 mm 1 mps 597 mmHg 48%
    18:00 +22°C° 1 mm 1 mps 597 mmHg 59%
    19:00 +20°C° 1 mm 1 mps 597 mmHg 70%
    20:00 +17°C° 1 mm 2 mps 597 mmHg 81%
    21:00 +17°C° 0 mm 2 mps 597 mmHg 80%
    22:00 +16°C° 0 mm 2 mps 597 mmHg 79%
    23:00 +16°C° 0 mm 2 mps 597 mmHg 78%

    27 March, Wednesday

    Time Temperature Precipitation Wind Pressure Humidity
    00:00 +15°C° 0 mm 2 mps 597 mmHg 79%
    01:00 +15°C° 0 mm 2 mps 596 mmHg 80%
    02:00 +15°C° 0 mm 2 mps 596 mmHg 81%
    03:00 +15°C° 0 mm 2 mps 596 mmHg 81%
    04:00 +15°C° 0 mm 2 mps 596 mmHg 81%
    05:00 +15°C° 0 mm 2 mps 597 mmHg 81%
    06:00 +17°C° 0 mm 2 mps 598 mmHg 70%
    07:00 +20°C° 0 mm 3 mps 600 mmHg 59%
    08:00 +24°C° 0 mm 3 mps 601 mmHg 48%
    09:00 +26°C° 0 mm 3 mps 601 mmHg 40%
    10:00 +28°C° 0 mm 3 mps 602 mmHg 32%
    11:00 +31°C° 0 mm 3 mps 602 mmHg 24%
    12:00 +29°C° 0 mm 2 mps 601 mmHg 27%
    13:00 +28°C° 0 mm 2 mps 600 mmHg 31%
    14:00 +27°C° 0 mm 2 mps 599 mmHg 34%
    15:00 +24°C° 1.5 mm 2 mps 598 mmHg 49%
    16:00 +21°C° 1.5 mm 2 mps 598 mmHg 63%
    17:00 +18°C° 1.5 mm 2 mps 597 mmHg 77%
    18:00 +18°C° 0.9 mm 2 mps 597 mmHg 79%
    19:00 +18°C° 0.9 mm 2 mps 598 mmHg 81%
    20:00 +18°C° 0.9 mm 1 mps 598 mmHg 83%
    21:00 +18°C° 0 mm 1 mps 598 mmHg 85%
    22:00 +16°C° 0 mm 2 mps 598 mmHg 86%
    23:00 +16°C° 0 mm 2 mps 597 mmHg 87%

    28 March, Thursday

    Time Temperature Precipitation Wind Pressure Humidity
    00:00 +16°C° 0 mm 2 mps 597 mmHg 87%
    01:00 +16°C° 0 mm 2 mps 597 mmHg 87%
    02:00 +16°C° 0 mm 2 mps 596 mmHg 87%
    03:00 +16°C° 0 mm 2 mps 597 mmHg 87%
    04:00 +16°C° 0 mm 3 mps 597 mmHg 86%
    05:00 +16°C° 0 mm 3 mps 598 mmHg 85%
    06:00 +17°C° 0 mm 3 mps 598 mmHg 80%
    07:00 +18°C° 0 mm 3 mps 599 mmHg 75%
    08:00 +19°C° 0 mm 3 mps 600 mmHg 70%
    09:00 +21°C° 0 mm 3 mps 601 mmHg 58%
    10:00 +25°C° 0 mm 4 mps 601 mmHg 47%
    11:00 +27°C° 0 mm 4 mps 602 mmHg 36%
    12:00 +27°C° 0.1 mm 3 mps 601 mmHg 37%
    13:00 +27°C° 0.1 mm 3 mps 600 mmHg 38%
    14:00 +26°C° 0.1 mm 3 mps 599 mmHg 40%
    15:00 +25°C° 0.3 mm 2 mps 599 mmHg 48%
    16:00 +23°C° 0.3 mm 2 mps 598 mmHg 56%
    17:00 +20°C° 0.3 mm 2 mps 598 mmHg 64%
    18:00 +19°C° 0.6 mm 2 mps 598 mmHg 69%
    19:00 +18°C° 0.6 mm 2 mps 598 mmHg 74%
    20:00 +17°C° 0.6 mm 2 mps 598 mmHg 79%
    21:00 +17°C° 0 mm 2 mps 598 mmHg 79%
    22:00 +16°C° 0 mm 2 mps 597 mmHg 80%
    23:00 +16°C° 0 mm 2 mps 597 mmHg 80%
    Show more